KMNDEEPH5 Weather Reports


time (UTC)temp
C
wind
direction
speed
KPH
gust
KPH
rain 1hr
cm
rain 24hr
cm
rain mn
cm
humidity
%
barometer
mb
20260504011550 18 269 14.5 17.7 0.00 0.00 0.00 35 1004.7
20260504010053 18 260 11.3 16.1 0.00 0.00 0.00 37 1004.6
20260504004552 19 248 12.9 16.1 0.00 0.00 0.00 37 1004.6
20260504003055 19 254 8.0 12.9 0.00 0.00 0.00 31 1004.8
20260504001605 19 262 11.3 14.5 0.00 0.00 0.00 28 1004.9
20260504000106 19 276 14.5 19.3 0.00 0.00 0.00 29 1004.9
20260503234549 19 279 17.7 24.1 0.00 0.00 0.00 31 1005.0
20260503233054 18 288 19.3 22.5 0.00 0.00 0.00 30 1004.9
20260503231552 19 277 17.7 20.9 0.00 0.00 0.00 29 1005.1
20260503230057 18 287 11.3 17.7 0.00 0.00 0.00 33 1005.3
20260503224547 18 290 17.7 20.9 0.00 0.00 0.00 29 1005.4
20260503223047 18 304 16.1 25.7 0.00 0.00 0.00 30 1005.4
20260503221557 18 298 14.5 22.5 0.00 0.00 0.00 35 1005.5
20260503220052 18 284 14.5 19.3 0.00 0.00 0.00 35 1005.7
20260503214549 17 298 12.9 17.7 0.00 0.00 0.00 41 1005.7
20260503213047 18 293 16.1 22.5 0.00 0.00 0.00 33 1005.8
20260503211546 18 291 14.5 19.3 0.00 0.00 0.00 30 1005.9
20260503210047 18 295 17.7 25.7 0.00 0.00 0.00 34 1006.0
20260503204552 17 266 9.7 12.9 0.00 0.00 0.00 38 1006.1
20260503203050 18 305 19.3 27.4 0.00 0.00 0.00 31 1006.2
20260503201550 17 303 14.5 19.3 0.00 0.00 0.00 33 1006.4
20260503200056 17 320 20.9 27.4 0.00 0.00 0.00 39 1006.6
20260503194551 17 319 20.9 29.0 0.00 0.00 0.00 36 1006.8
20260503193059 17 312 27.4 37.0 0.00 0.00 0.00 38 1006.9
20260503191549 17 305 16.1 22.5 0.00 0.00 0.00 37 1007.0
20260503190051 16 314 16.1 25.7 0.00 0.00 0.00 39 1007.1
20260503184549 17 305 17.7 27.4 0.00 0.00 0.00 35 1007.2
20260503183112 17 315 22.5 38.6 0.00 0.00 0.00 36 1007.3
20260503181614 16 313 19.3 27.4 0.00 0.00 0.00 42 1007.4
20260503180048 16 333 16.1 30.6 0.00 0.00 0.00 46 1007.5
20260503174549 16 325 16.1 29.0 0.00 0.00 0.00 47 1007.5
20260503173056 16 324 25.7 33.8 0.00 0.00 0.00 43 1007.7
20260503171555 16 306 22.5 29.0 0.00 0.00 0.00 42 1007.7
20260503100104 12 209 4.8 11.3 0.00 0.00 0.00 49 1005.1